GW4111 Weather Reports


time (UTC)temp
C
wind
direction
speed
KPH
gust
KPH
rain 1hr
cm
rain 24hr
cm
rain mn
cm
humidity
%
barometer
mb
20260505041540 17 245 9.7 35.4 0.00 0.00 0.00 65 1002.1
20260505040036 17 255 3.2 14.5 0.00 0.00 0.00 65 1001.8
20260505034538 16 0 0.0 8.0 0.00 0.00 0.00 65 1001.5
20260505033038 15 0 0.0 8.0 0.00 0.00 0.00 65 1001.6
20260505031540 15 0 0.0 9.7 0.00 0.00 0.00 65 1002.0
20260505030038 15 0 0.0 8.0 0.00 0.00 0.00 65 1002.3
20260505024539 15 197 1.6 14.5 0.00 0.00 0.00 65 1002.3
20260505023036 15 0 1.6 9.7 0.00 0.00 0.00 65 1002.3
20260505021539 15 158 4.8 19.3 0.00 0.00 0.00 64 1002.4
20260505020038 15 0 0.0 1.6 0.00 0.00 0.00 56 1002.3
20260505014538 15 0 0.0 1.6 0.00 0.00 0.00 55 1002.2
20260505013039 15 0 0.0 4.8 0.00 0.00 0.00 55 1002.1
20260505011541 15 194 0.0 4.8 0.00 0.00 0.00 55 1002.3
20260505010048 15 0 0.0 6.4 0.00 0.00 0.00 54 1002.2
20260505004538 16 0 0.0 6.4 0.00 0.00 0.00 52 1002.2
20260505003038 17 0 0.0 4.8 0.00 0.00 0.00 48 1002.3
20260505001540 18 0 0.0 6.4 0.00 0.00 0.00 46 1002.2
20260505000044 20 255 1.6 11.3 0.00 0.00 0.00 40 1002.2
20260504234536 20 0 1.6 11.3 0.00 0.00 0.00 39 1002.2
20260504233033 21 0 3.2 17.7 0.00 0.00 0.00 40 1002.2
20260504231544 21 197 4.8 20.9 0.00 0.00 0.00 40 1002.4
20260504230050 21 139 9.7 25.7 0.00 0.00 0.00 41 1002.4
20260504224537 21 259 8.0 19.3 0.00 0.00 0.00 40 1002.5
20260504223038 21 222 8.0 24.1 0.00 0.00 0.00 39 1002.4
20260504221540 21 262 8.0 22.5 0.00 0.00 0.00 36 1002.4
20260504220041 21 197 6.4 29.0 0.00 0.00 0.00 35 1002.3
20260504214537 22 128 11.3 25.7 0.00 0.00 0.00 33 1002.3
20260504213038 22 283 12.9 33.8 0.00 0.00 0.00 34 1002.3
20260504211539 21 290 8.0 25.7 0.00 0.00 0.00 38 1002.3
20260504210043 21 191 6.4 24.1 0.00 0.00 0.00 40 1002.5
20260504204547 21 221 9.7 24.1 0.00 0.00 0.00 40 1002.7
20260504203053 22 215 9.7 24.1 0.00 0.00 0.00 38 1002.8
20260504201540 22 177 3.2 17.7 0.00 0.00 0.00 41 1002.8
20260504200038 22 242 3.2 19.3 0.00 0.00 0.00 41 1002.9
20260504194538 21 193 9.7 25.7 0.00 0.00 0.00 41 1003.1
20260504193038 21 244 11.3 40.2 0.00 0.00 0.00 42 1003.5
20260504191542 21 226 11.3 24.1 0.00 0.00 0.00 43 1003.8
20260504190050 21 252 11.3 27.4 0.00 0.00 0.00 42 1004.0
20260504184540 21 254 12.9 22.5 0.00 0.00 0.00 44 1004.1
20260504183039 21 215 9.7 24.1 0.00 0.00 0.00 44 1004.4
20260504181542 21 232 9.7 22.5 0.00 0.00 0.00 45 1004.5
20260504180039 20 166 8.0 25.7 0.00 0.00 0.00 46 1004.7
20260504174536 20 248 12.9 27.4 0.00 0.00 0.00 47 1004.9
20260504173035 18 276 17.7 35.4 0.00 0.00 0.00 48 1005.0
20260504171539 18 253 12.9 29.0 0.00 0.00 0.00 49 1005.1
20260504081542 8 0 1.6 8.0 0.00 0.00 0.00 65 1007.1
20260504044536 10 217 11.3 22.5 0.00 0.00 0.00 64 1008.6
20260504043036 10 245 9.7 25.7 0.00 0.00 0.00 63 1008.7